When you browse on this site, cookies collect data to enhance your experience and personalize the content and advertising you see.
Visit our Privacy Policy to learn more. By continuing to use the site, you agree to this use of cookies and data.
  • In Deutschland
  • Länderverzeichnis
  • Für 7 Tage
  • Wassertemperatur
  • Satellitenkarten
  • Wetterkarte
  • Widgets
  • user-avatar
    Anmelden

    Stündliche Wetter Preston

    Heute, 15 Dezember, Samstag

    Zeit Temperatur Niederschläge Wind Luftdruck Luftfeuchtigkeit
    00:00 -1°C° 0 mm 8 m/S 761 mmHg 77%
    01:00 -1°C° 0 mm 9 m/S 761 mmHg 75%
    02:00 -1°C° 0 mm 9 m/S 760 mmHg 72%
    03:00 -1°C° 0 mm 9 m/S 760 mmHg 70%
    04:00 -2°C° 0.1 mm 10 m/S 759 mmHg 71%
    05:00 -3°C° 0.1 mm 10 m/S 758 mmHg 72%
    06:00 -3°C° 0 mm 10 m/S 758 mmHg 73%
    07:00 -3°C° 0.1 mm 10 m/S 757 mmHg 74%
    08:00 -3°C° 0.1 mm 11 m/S 756 mmHg 75%
    09:00 -3°C° 0.1 mm 11 m/S 756 mmHg 75%
    10:00 -3°C° 0.1 mm 11 m/S 754 mmHg 75%
    11:00 -2°C° 0.1 mm 12 m/S 753 mmHg 75%
    12:00 -2°C° 0.1 mm 12 m/S 752 mmHg 74%
    13:00 -1°C° 1.6 mm 12 m/S 750 mmHg 77%
    14:00 -1°C° 1.6 mm 13 m/S 749 mmHg 79%
    15:00 -1°C° 1.6 mm 13 m/S 747 mmHg 82%
    16:00 0°C° 2.3 mm 13 m/S 746 mmHg 83%
    17:00 0°C° 2.3 mm 13 m/S 744 mmHg 85%
    18:00 0°C° 2.3 mm 12 m/S 743 mmHg 87%
    19:00 +2°C° 0.2 mm 11 m/S 742 mmHg 88%
    20:00 +3°C° 0.2 mm 10 m/S 741 mmHg 90%
    21:00 +5°C° 0.2 mm 9 m/S 741 mmHg 91%
    22:00 +5°C° 0.9 mm 10 m/S 741 mmHg 89%
    23:00 +4°C° 0.9 mm 11 m/S 742 mmHg 87%

    Morgen, 16 Dezember, Sonntag

    Zeit Temperatur Niederschläge Wind Luftdruck Luftfeuchtigkeit
    00:00 +4°C° 0.9 mm 12 m/S 743 mmHg 85%
    01:00 +4°C° 0.5 mm 11 m/S 743 mmHg 82%
    02:00 +5°C° 0.5 mm 10 m/S 744 mmHg 80%
    03:00 +5°C° 0.5 mm 9 m/S 745 mmHg 77%
    04:00 +5°C° 0.1 mm 8 m/S 746 mmHg 79%
    05:00 +4°C° 0.1 mm 7 m/S 747 mmHg 81%
    06:00 +4°C° 0.1 mm 7 m/S 748 mmHg 83%
    07:00 +3°C° 0.1 mm 6 m/S 748 mmHg 85%
    08:00 +3°C° 0.1 mm 5 m/S 749 mmHg 86%
    09:00 +4°C° 0.1 mm 4 m/S 749 mmHg 87%
    10:00 +4°C° 0.1 mm 4 m/S 750 mmHg 86%
    11:00 +5°C° 0.1 mm 5 m/S 750 mmHg 84%
    12:00 +6°C° 0.1 mm 5 m/S 750 mmHg 83%
    13:00 +5°C° 0.2 mm 4 m/S 750 mmHg 84%
    14:00 +5°C° 0.2 mm 4 m/S 750 mmHg 86%
    15:00 +5°C° 0.2 mm 4 m/S 750 mmHg 87%
    16:00 +5°C° 0.2 mm 4 m/S 750 mmHg 88%
    17:00 +4°C° 0.2 mm 4 m/S 750 mmHg 89%
    18:00 +4°C° 0.2 mm 3 m/S 751 mmHg 90%
    19:00 +4°C° 0 mm 4 m/S 751 mmHg 90%
    20:00 +3°C° 0 mm 4 m/S 752 mmHg 90%
    21:00 +3°C° 0 mm 4 m/S 752 mmHg 90%
    22:00 +3°C° 0.1 mm 4 m/S 753 mmHg 90%
    23:00 +3°C° 0.1 mm 4 m/S 753 mmHg 90%

    übermorgen, 17 Dezember, Montag

    Zeit Temperatur Niederschläge Wind Luftdruck Luftfeuchtigkeit
    00:00 +3°C° 0.1 mm 4 m/S 753 mmHg 89%
    01:00 +3°C° 0.1 mm 4 m/S 754 mmHg 89%
    02:00 +3°C° 0.1 mm 4 m/S 754 mmHg 90%
    03:00 +3°C° 0.1 mm 4 m/S 755 mmHg 90%
    04:00 +3°C° 0.1 mm 4 m/S 755 mmHg 89%
    05:00 +3°C° 0.1 mm 4 m/S 756 mmHg 89%
    06:00 +3°C° 0.1 mm 4 m/S 756 mmHg 89%
    07:00 +3°C° 0 mm 4 m/S 757 mmHg 89%
    08:00 +3°C° 0 mm 4 m/S 757 mmHg 89%
    09:00 +3°C° 0 mm 4 m/S 757 mmHg 89%
    10:00 +4°C° 0 mm 4 m/S 757 mmHg 88%
    11:00 +3°C° 0 mm 5 m/S 757 mmHg 86%
    12:00 +5°C° 0 mm 5 m/S 757 mmHg 85%
    13:00 +5°C° 0 mm 5 m/S 757 mmHg 86%
    14:00 +5°C° 0 mm 6 m/S 757 mmHg 87%
    15:00 +5°C° 0 mm 6 m/S 756 mmHg 88%
    16:00 +5°C° 0.2 mm 7 m/S 756 mmHg 89%
    17:00 +5°C° 0.2 mm 7 m/S 756 mmHg 89%
    18:00 +6°C° 0.2 mm 8 m/S 756 mmHg 89%
    19:00 +6°C° 0.1 mm 8 m/S 756 mmHg 89%
    20:00 +7°C° 0.1 mm 8 m/S 756 mmHg 89%
    21:00 +7°C° 0.1 mm 8 m/S 755 mmHg 89%
    22:00 +7°C° 0.1 mm 8 m/S 755 mmHg 89%
    23:00 +7°C° 0.1 mm 8 m/S 755 mmHg 89%

    18 Dezember, Dienstag

    Zeit Temperatur Niederschläge Wind Luftdruck Luftfeuchtigkeit
    00:00 +8°C° 0.1 mm 9 m/S 754 mmHg 88%
    01:00 +8°C° 0 mm 9 m/S 754 mmHg 87%
    02:00 +8°C° 0 mm 9 m/S 754 mmHg 86%
    03:00 +8°C° 0 mm 9 m/S 753 mmHg 85%
    04:00 +8°C° 0 mm 10 m/S 752 mmHg 84%
    05:00 +8°C° 0 mm 10 m/S 752 mmHg 83%
    06:00 +8°C° 0 mm 11 m/S 751 mmHg 81%
    07:00 +8°C° 0.3 mm 11 m/S 750 mmHg 81%
    08:00 +8°C° 0.3 mm 12 m/S 750 mmHg 80%
    09:00 +7°C° 0.3 mm 12 m/S 749 mmHg 80%
    10:00 +7°C° 1.3 mm 13 m/S 749 mmHg 78%
    11:00 +7°C° 1.3 mm 13 m/S 748 mmHg 77%
    12:00 +7°C° 1.3 mm 13 m/S 747 mmHg 76%
    13:00 +7°C° 1.1 mm 13 m/S 746 mmHg 77%
    14:00 +7°C° 1.1 mm 12 m/S 746 mmHg 78%
    15:00 +5°C° 1.1 mm 12 m/S 745 mmHg 80%
    16:00 +6°C° 1.2 mm 11 m/S 745 mmHg 81%
    17:00 +6°C° 1.2 mm 11 m/S 745 mmHg 82%
    18:00 +6°C° 1.2 mm 10 m/S 745 mmHg 83%
    19:00 +6°C° 2 mm 9 m/S 745 mmHg 85%
    20:00 +6°C° 2 mm 7 m/S 745 mmHg 86%
    21:00 +7°C° 2 mm 6 m/S 744 mmHg 88%
    22:00 +7°C° 0.8 mm 5 m/S 745 mmHg 87%
    23:00 +6°C° 0.8 mm 5 m/S 745 mmHg 86%

    19 Dezember, Mittwoch

    Zeit Temperatur Niederschläge Wind Luftdruck Luftfeuchtigkeit
    00:00 +6°C° 0.8 mm 4 m/S 745 mmHg 85%
    01:00 +6°C° 0.1 mm 5 m/S 746 mmHg 85%
    02:00 +6°C° 0.1 mm 5 m/S 747 mmHg 85%
    03:00 +5°C° 0.1 mm 6 m/S 748 mmHg 85%
    04:00 +4°C° 0 mm 6 m/S 748 mmHg 84%
    05:00 +4°C° 0 mm 6 m/S 749 mmHg 83%
    06:00 +4°C° 0 mm 6 m/S 749 mmHg 82%
    07:00 +4°C° 0 mm 6 m/S 750 mmHg 82%
    08:00 +3°C° 0 mm 6 m/S 750 mmHg 83%
    09:00 +3°C° 0 mm 7 m/S 751 mmHg 83%
    10:00 +4°C° 0.1 mm 7 m/S 751 mmHg 81%
    11:00 +5°C° 0.1 mm 7 m/S 751 mmHg 78%
    12:00 +5°C° 0.1 mm 7 m/S 751 mmHg 76%
    13:00 +5°C° 0.1 mm 7 m/S 752 mmHg 76%
    14:00 +5°C° 0.1 mm 7 m/S 752 mmHg 77%
    15:00 +5°C° 0.1 mm 7 m/S 752 mmHg 78%
    16:00 +5°C° 0.1 mm 7 m/S 752 mmHg 80%
    17:00 +5°C° 0.1 mm 7 m/S 752 mmHg 81%
    18:00 +4°C° 0.1 mm 7 m/S 752 mmHg 83%
    19:00 +4°C° 0.1 mm 7 m/S 753 mmHg 84%
    20:00 +4°C° 0.1 mm 7 m/S 753 mmHg 84%
    21:00 +4°C° 0.1 mm 7 m/S 753 mmHg 85%
    22:00 +4°C° 0.3 mm 7 m/S 753 mmHg 85%
    23:00 +4°C° 0.3 mm 6 m/S 753 mmHg 86%

    20 Dezember, Donnerstag

    Zeit Temperatur Niederschläge Wind Luftdruck Luftfeuchtigkeit
    00:00 +4°C° 0.3 mm 6 m/S 753 mmHg 86%
    01:00 +4°C° 0.4 mm 6 m/S 754 mmHg 88%
    02:00 +5°C° 0.4 mm 5 m/S 754 mmHg 89%
    03:00 +5°C° 0.4 mm 5 m/S 755 mmHg 90%
    04:00 +5°C° 0.2 mm 5 m/S 755 mmHg 91%
    05:00 +5°C° 0.2 mm 5 m/S 756 mmHg 91%
    06:00 +5°C° 0.2 mm 5 m/S 756 mmHg 91%
    07:00 +5°C° 0.2 mm 5 m/S 757 mmHg 91%
    08:00 +5°C° 0.2 mm 4 m/S 757 mmHg 91%
    09:00 +5°C° 0.2 mm 4 m/S 758 mmHg 91%
    10:00 +6°C° 0.1 mm 4 m/S 758 mmHg 88%
    11:00 +6°C° 0.1 mm 5 m/S 759 mmHg 86%
    12:00 +7°C° 0.1 mm 5 m/S 759 mmHg 83%
    13:00 +7°C° 0 mm 4 m/S 759 mmHg 84%
    14:00 +6°C° 0 mm 4 m/S 760 mmHg 85%
    15:00 +7°C° 0 mm 3 m/S 760 mmHg 86%
    16:00 +7°C° 0 mm 3 m/S 760 mmHg 87%
    17:00 +5°C° 0 mm 3 m/S 761 mmHg 88%
    18:00 +5°C° 0 mm 3 m/S 761 mmHg 90%
    19:00 +4°C° 0 mm 3 m/S 761 mmHg 90%
    20:00 +4°C° 0 mm 3 m/S 762 mmHg 90%
    21:00 +4°C° 0 mm 3 m/S 762 mmHg 91%
    22:00 +4°C° 0 mm 3 m/S 762 mmHg 91%
    23:00 +4°C° 0 mm 3 m/S 762 mmHg 91%
    Mehr zeigen